This demonstration page uses our WeatherBlox Daily Observations layout. Learn more.

Left ArrowRight Arrow

39.51506, -84.39828

Hourly Observations for March 17, 2018

Temp ( °F °C ) Dew Point ( °F °C ) Humidity (%) Winds ( mph kmh ) Pressure ( in mb ) Visibility ( mi km ) Precip ( " mm )
12:15 am 00:15 Clear 31 -0.5 20 -6.9 62 62 ENE 3 6 30.09 1019 10 16.0934 N/A
12:35 am 00:35 Clear 31 -0.6 20 -6.6 64 64 NE 5 7 30.09 1019 10 16.0934 N/A
12:55 am 00:55 Clear 33 0.3 19 -7.4 57 57 ENE 3 6 30.06 1018 10 16.0934 N/A
1:15 am 01:15 Clear 33 0.4 17 -8.3 52 52 ENE 6 9 30.06 1018 10 16.0934 N/A
1:30 am 01:30 Mostly Cloudy 34 0.9 18 -7.8 53 53 ENE 6 9 30.06 1018 10 16.0934 N/A
1:55 am 01:55 Cloudy 35 1.5 18 -7.8 50 50 ENE 8 13 30.03 1017 10 16.0934 N/A
2:15 am 02:15 Cloudy 35 1.5 17 -8.2 49 49 ENE 6 9 30.03 1017 10 16.0934 N/A
2:35 am 02:35 Cloudy 35 1.8 17 -8.5 47 47 E 7 11 30.03 1017 10 16.0934 N/A
2:55 am 02:55 Cloudy 35 1.9 15 -9.2 44 44 ENE 5 7 30.03 1017 10 16.0934 N/A
3:15 am 03:15 Cloudy with Light Rain 35 1.6 19 -7 53 53 E 8 13 30 1016 10 16.0934 N/A
3:35 am 03:35 Cloudy with Light Rain 35 1.7 20 -6.8 54 54 ENE 6 9 30 1016 10 16.0934 N/A
3:55 am 03:55 Cloudy with Light Rain 36 2 19 -7.3 51 51 N N/A 30 1016 10 16.0934 N/A
4:15 am 04:15 Cloudy with Light Rain 35 1.9 21 -5.9 57 57 N 3 6 30.03 1017 10 16.0934 N/A
4:35 am 04:35 Cloudy with Light Rain 34 1.3 26 -3.3 72 72 NE 7 11 30 1016 7 11.26538 N/A
4:55 am 04:55 Cloudy with Light Snow 33 0.7 27 -3 77 77 ENE 7 11 29.97 1015 5 8.0467 0.04 1.016
5:15 am 05:15 Cloudy with Light Snow 33 0.8 27 -2.7 78 78 NE 3 6 29.97 1015 7 11.26538 0.02 0.508
5:35 am 05:35 Cloudy with Light Wintry Mix 33 0.5 29 -1.9 84 84 N N/A 29.97 1015 3.5 5.63269 0.05 1.27
5:55 am 05:55 Cloudy with Light Snow 33 0.4 29 -1.4 88 88 NNE 5 7 29.97 1015 5 8.0467 0.09 2.286
6:15 am 06:15 Cloudy with Light Rain 33 0.5 29 -1.5 87 87 N 3 6 29.97 1015 10 16.0934 0.01 0.254
6:35 am 06:35 Cloudy with Light Rain 33 0.5 29 -1.5 87 87 ENE 6 9 29.97 1015 10 16.0934 0.01 0.254
6:55 am 06:55 Cloudy 33 0.6 29 -1.6 85 85 ENE 6 9 29.94 1014 10 16.0934 0.01 0.254
7:15 am 07:15 Cloudy 33 0.7 29 -1.5 85 85 ENE 5 7 29.94 1014 10 16.0934 N/A
7:35 am 07:35 Cloudy 33 0.7 29 -1.4 86 86 E 5 7 29.94 1014 10 16.0934 N/A
7:55 am 07:55 Cloudy 33 0.7 29 -1.4 86 86 ENE 5 7 29.94 1014 10 16.0934 N/A
8:15 am 08:15 Cloudy 33 0.8 30 -1.3 86 86 ENE 6 9 29.94 1014 10 16.0934 N/A
8:35 am 08:35 Cloudy 34 1 30 -1.2 85 85 NE 7 11 29.94 1014 10 16.0934 N/A
8:55 am 08:55 Cloudy 34 1.1 30 -1.2 85 85 ENE 6 9 29.94 1014 10 16.0934 N/A
9:15 am 09:15 Cloudy 35 1.4 30 -1 84 84 ENE 7 11 29.94 1014 10 16.0934 N/A
9:35 am 09:35 Cloudy 35 1.6 30 -1.2 82 82 ENE 7 11 29.94 1014 10 16.0934 N/A
9:55 am 09:55 Partly Cloudy 36 2.4 30 -0.9 79 79 E 9 15 29.94 1014 10 16.0934 N/A
10:15 am 10:15 Sunny 37 2.9 30 -0.9 76 76 E 8 13 29.91 1013 10 16.0934 N/A
10:35 am 10:35 Cloudy 38 3.1 31 -0.8 76 76 E 7 11 29.91 1013 10 16.0934 N/A
10:55 am 10:55 Cloudy 38 3.4 31 -0.6 75 75 E 8 13 29.91 1013 10 16.0934 N/A
11:15 am 11:15 Cloudy 40 4.6 31 -0.3 71 71 E 8 13 29.91 1013 10 16.0934 N/A
11:35 am 11:35 Cloudy 40 4.4 32 -0.2 72 72 E 9 15 29.91 1013 10 16.0934 N/A
11:55 am 11:55 Cloudy 41 4.9 31 -0.3 69 69 ENE 10 17 29.91 1013 10 16.0934 N/A
12:15 pm 12:15 Cloudy 41 4.9 31 -0.5 68 68 ENE 12 19 29.91 1013 10 16.0934 N/A
12:35 pm 12:35 Cloudy 41 5.1 31 -0.5 67 67 E 8 13 29.91 1013 10 16.0934 N/A
12:55 pm 12:55 Cloudy 41 5 31 -0.7 67 67 ENE 12 19 29.88 1012 10 16.0934 N/A
1:15 pm 13:15 Cloudy 41 4.8 31 -0.4 69 69 E 13 20 29.91 1013 10 16.0934 N/A
1:35 pm 13:35 Cloudy 41 5.2 31 -0.5 67 67 E 13 20 29.88 1012 10 16.0934 N/A
1:55 pm 13:55 Cloudy 42 5.4 30 -0.9 64 64 E 12 19 29.88 1012 10 16.0934 N/A
2:15 pm 14:15 Cloudy 43 6 31 -0.8 62 62 E 13 20 29.88 1012 10 16.0934 N/A
2:35 pm 14:35 Cloudy 44 6.5 31 -0.6 61 61 ENE 13 20 29.85 1011 10 16.0934 N/A
2:55 pm 14:55 Cloudy 44 6.8 30 -1.1 57 57 E 13 20 29.85 1011 10 16.0934 N/A
3:15 pm 15:15 Cloudy 45 7.1 30 -1 57 57 E 12 19 29.85 1011 10 16.0934 N/A
3:35 pm 15:35 Cloudy 44 6.9 30 -1.2 57 57 E 13 20 29.85 1011 10 16.0934 N/A
3:55 pm 15:55 Cloudy 44 6.7 29 -1.6 56 56 ESE 10 17 29.85 1011 10 16.0934 N/A
4:15 pm 16:15 Cloudy 44 6.8 29 -1.7 55 55 SE 8 13 29.85 1011 10 16.0934 N/A
4:35 pm 16:35 Cloudy 45 7 30 -1 57 57 E 9 15 29.85 1011 10 16.0934 N/A
4:55 pm 16:55 Cloudy 45 7.1 30 -1 57 57 E 9 15 29.85 1011 10 16.0934 N/A
5:15 pm 17:15 Cloudy 45 7 30 -1.2 56 56 ENE 8 13 29.85 1011 10 16.0934 N/A
5:35 pm 17:35 Cloudy 45 7 30 -1.2 56 56 ENE 7 11 29.85 1011 10 16.0934 N/A
5:55 pm 17:55 Cloudy 45 7.1 30 -0.9 57 57 NNE 10 17 29.85 1011 10 16.0934 N/A
6:15 pm 18:15 Cloudy 45 7.1 30 -1.1 56 56 NE 13 20 29.85 1011 10 16.0934 N/A
6:35 pm 18:35 Cloudy 45 7.1 29 -1.4 55 55 NE 12 19 29.85 1011 10 16.0934 N/A
6:55 pm 18:55 Cloudy 45 7 29 -1.6 55 55 NE 14 22 29.85 1011 10 16.0934 N/A
7:15 pm 19:15 Cloudy 44 6.9 29 -1.6 55 55 NE 13 20 29.85 1011 10 16.0934 N/A
7:35 pm 19:35 Cloudy 44 6.8 31 -0.4 60 60 ENE 14 22 29.85 1011 10 16.0934 N/A
7:55 pm 19:55 Cloudy 44 6.7 32 -0.2 62 62 NE 12 19 29.88 1012 10 16.0934 N/A
8:15 pm 20:15 Cloudy 43 6 31 -0.6 63 63 NNE 12 19 29.88 1012 10 16.0934 N/A
8:35 pm 20:35 Cloudy 41 4.8 32 0.2 72 72 NNE 13 20 29.88 1012 10 16.0934 N/A
8:55 pm 20:55 Cloudy 41 4.8 32 -0.1 71 71 NNE 8 13 29.91 1013 10 16.0934 N/A
9:15 pm 21:15 Cloudy 40 4.7 32 -0.2 71 71 NNE 9 15 29.91 1013 10 16.0934 N/A
9:35 pm 21:35 Cloudy 40 4.3 33 0.3 75 75 NNE 8 13 29.91 1013 10 16.0934 N/A
9:55 pm 21:55 Cloudy 40 4.2 33 0.3 76 76 NNE 12 19 29.94 1014 10 16.0934 N/A
10:15 pm 22:15 Cloudy 39 4 33 0.4 78 78 NE 8 13 29.94 1014 10 16.0934 N/A
10:35 pm 22:35 Cloudy 39 3.9 33 0.4 78 78 NNE 10 17 29.94 1014 10 16.0934 N/A
10:55 pm 22:55 Cloudy 39 3.8 33 0.4 79 79 NNE 8 13 29.97 1015 10 16.0934 N/A
11:15 pm 23:15 Cloudy 38 3.6 33 0.5 80 80 N 7 11 29.97 1015 10 16.0934 N/A
11:35 pm 23:35 Cloudy 38 3.5 33 0.3 80 80 NNE 7 11 29.97 1015 10 16.0934 N/A
11:55 pm 23:55 Cloudy 38 3.4 32 undefined 79 79 NNE 6 9 29.97 1015 10 16.0934 N/A

Powered by AerisWeather